Regional Weather Roundup
Issued by NWS

Home | Current Version | Previous Version | Graphics & Text | Print | Product List | Glossary On
Versions: 1 2 3 4 5 6 7 8 9 10 11 12 13 14 15 16 17 18 19 20 21 22 23 24 25 26 27 28 29 30 31 32 33 34 35 36 37 38 39 40 41 42 43 44 45 46 47 48 49 50
000
ASUS43 KFSD 012002
RWRSD

WEATHER ROUNDUP FOR SOUTH DAKOTA
NATIONAL WEATHER SERVICE SIOUX FALLS SD
300 PM CDT WED OCT 01 2014

NOTE: "FAIR" INDICATES FEW OR NO CLOUDS BELOW 12,000 FEET WITH NO
SIGNIFICANT WEATHER AND/OR OBSTRUCTIONS TO VISIBILITY.


SDZ001>005-009-010-012>017-012100-
NORTHWEST AND NORTH CENTRAL SOUTH DAKOTA

CITY           SKY/WX    TMP DP  RH WIND       PRES   REMARKS
BUFFALO          N/A     52  43  71 NW24      29.80F
FAITH            N/A     56  46  69 NW15      29.83S
MOBRIDGE       CLOUDY    64  49  57 W16G23    29.75R
$$

SDZ012>016-024>037-041>051-057-063-072>074-012100-
SOUTHWEST AND SOUTH CENTRAL SOUTH DAKOTA

CITY           SKY/WX    TMP DP  RH WIND       PRES   REMARKS
RAPID CTY ARPT RAIN      52  46  80 N16       29.87S
PIERRE         PTSUNNY   69  48  47 W14       29.76F
CUSTER         CLOUDY    50  43  77 W6        29.89F
ELLSWORTH AFB  RAIN      53  46  75 N18       29.86S
PHILIP         CLOUDY    64  46  52 NW15      29.82F
PINE RIDGE     CLOUDY    60  47  61 NE3       29.85S
WINNER         FAIR      70  48  45 NW15      29.78F
$$

SDZ004>011-016>023-039-040-012100-
NORTHEAST SOUTH DAKOTA

CITY           SKY/WX    TMP DP  RH WIND       PRES   REMARKS
ABERDEEN       PTSUNNY   68  51  54 NW14G24   29.71S
WATERTOWN      SUNNY     70  51  51 W14       29.71S
SISSETON         N/A     72  51  47 NW12G21   29.67S
$$

SDZ017-020-022-023-036>040-048>070-012100-
SOUTHEAST SOUTH DAKOTA

CITY           SKY/WX    TMP DP  RH WIND       PRES   REMARKS
SIOUX FALLS    PTSUNNY   72  57  59 VRB5      29.72F
HURON          SUNNY     74  48  39 NW12G21   29.71F
CHAMBERLAIN    MOSUNNY   70  49  47 NW13G18   29.76F
MITCHELL       MOSUNNY   75  50  41 NW12      29.73S
YANKTON        MOSUNNY   73  57  56 N12       29.72S
$$

ABBREVIATIONS USED IN REMARKS
   TC - TEMPERATURE IN CELSIUS
  WCI - WIND CHILL INDEX
   HX - HEAT INDEX
  VSB - VISIBILITY




USA.gov is the U.S. government's official web portal to all federal, state and local government web resources and services.